Lapse_Rate
5.9 5.6 5.7 5.7 5.6 5.9 6.0 5.8 5.8 5.6 5.4 5.4 5.5 5.4 5.6 5.7 5.9 5.6 6.0 6.3 6.3 6.5
5.8 6.1 6.1 6.0 5.8 5.7 5.5 5.5 5.4 5.7 5.6 5.4 5.3 5.5 5.2 5.5 5.6 5.8 5.9 6.0 6.1 6.1
6.3 6.2 6.0 6.1 6.1 5.8 5.8 5.6 5.6 5.6 5.6 5.7 5.8 5.4 5.2 5.2 5.4 5.3 5.4 5.6 5.5 5.8
6.6 6.2 6.1 6.1 6.2 6.1 5.8 5.7 5.6 5.9 5.8 5.7 5.6 5.5 5.5 5.6 5.6 5.6 5.6 5.2 5.5 5.7
6.8 6.4 6.4 6.4 6.4 6.3 6.1 6.2 6.0 6.0 6.0 6.1 6.1 5.9 5.7 5.5 5.7 5.8 5.9 5.6 5.7 5.8
6.8 6.6 6.5 6.4 6.3 6.3 6.3 6.3 6.3 6.3 6.0 6.1 6.1 6.0 5.9 6.0 6.1 6.3 6.3 6.2 6.0 6.2
7.2 6.9 6.6 6.4 6.4 6.4 6.4 6.4 6.3 6.2 6.1 6.1 6.1 6.1 6.2 6.3 6.3 6.2 6.3 6.3 6.4 6.5
6.9 6.9 6.8 6.8 6.7 6.6 6.5 6.5 6.4 6.2 6.2 6.2 6.2 6.2 6.2 6.2 6.3 6.4 6.5 6.4 6.6 6.9
6.6 6.7 6.6 6.6 6.5 6.4 6.3 6.2 6.1 6.2 6.2 6.1 6.1 6.2 6.2 6.3 6.4 6.6 6.7 6.9 7.0 7.0
6.4 6.4 6.5 6.4 6.3 6.3 6.1 6.0 6.0 6.0 6.0 6.1 6.2 6.3 6.4 6.6 6.8 7.0 7.0 7.1 7.1 7.1
6.5 6.3 6.5 6.3 6.1 6.1 6.1 6.2 6.2 6.2 6.3 6.5 6.5 6.6 6.6 6.7 6.8 6.9 7.0 6.9 6.8 6.7
6.3 6.1 6.3 6.3 6.3 6.4 6.4 6.4 6.4 6.4 6.4 6.5 6.5 6.6 6.6 6.7 6.8 6.8 6.7 6.6 6.4 6.3
6.5 6.3 6.3 6.5 6.5 6.4 6.4 6.5 6.4 6.4 6.5 6.5 6.5 6.6 6.6 6.7 6.8 6.7 6.5 6.3 6.3 6.2
6.4 6.6 6.5 6.5 6.6 6.5 6.5 6.5 6.4 6.3 6.4 6.3 6.5 6.6 6.7 6.9 6.9 6.7 6.4 6.2 6.4 6.5
Wind_Speed
3 2 2 5 5 5 3 3 6 6 6 6 6 3 2 1 2 3 3 5 4 3
2 3 3 4 4 6 7 6 7 5 5 3 2 2 0 2 4 3 3 4 4 3
3 4 3 3 3 2 1 3 5 4 3 2 0 1 2 2 3 4 3 3 4 3
2 4 6 5 3 4 4 2 4 4 3 2 1 1 2 3 4 5 5 4 4 4
3 2 2 4 6 5 5 4 4 3 2 1 2 1 3 3 4 5 5 5 4 4
5 5 5 5 5 5 5 4 3 3 2 2 2 2 2 3 5 4 4 5 4 4
5 6 5 5 4 4 4 4 3 2 1 2 2 1 1 3 3 2 1 1 1 2
6 5 5 5 4 4 4 4 3 3 2 1 2 2 2 3 3 3 2 2 2 2
6 6 6 5 6 5 5 5 4 3 3 3 2 4 5 4 4 3 3 2 2 3
7 7 6 6 6 6 6 4 4 4 4 4 3 5 6 6 3 3 3 4 3 3
7 7 6 6 6 6 4 5 4 4 4 4 3 4 2 4 2 2 3 4 4 4
8 8 7 8 7 5 5 4 3 3 5 5 4 6 6 4 3 3 3 3 3 3
7 8 9 7 7 4 4 4 4 4 5 8 5 8 8 5 2 3 3 3 2 6
7 8 8 7 5 5 5 5 4 5 4 5 6 5 10 9 4 3 3 3 3 3
Wind_Direction
263 227 238 178 177 140 210 160 165 163 185 182 190 172 232 285 268 246 227 246 239 251
224 183 164 213 185 157 193 191 183 157 174 177 158 118 181 257 254 245 250 258 266 257
115 107 112 132 171 153 360 68 98 116 113 110 120 177 210 242 266 257 256 237 260 255
145 124 119 103 57 120 106 104 130 132 154 165 236 279 290 283 285 272 266 262 237 258
191 172 181 148 152 142 138 149 155 136 134 240 302 309 272 294 299 282 269 263 254 225
192 182 180 170 166 163 154 160 138 133 180 253 256 265 303 312 302 293 284 271 238 225
219 200 192 184 179 163 151 146 134 133 183 208 185 235 319 302 301 302 278 331 342 211
219 204 191 184 171 144 136 131 132 149 187 185 217 241 250 260 256 242 228 87 96 108
204 196 195 179 162 150 146 145 155 184 192 208 248 249 266 249 231 216 202 180 143 117
190 195 190 173 161 165 169 163 182 192 191 208 229 257 257 245 198 191 193 179 155 113
190 185 177 172 176 169 165 184 182 196 197 191 218 218 237 139 139 155 171 173 166 151
185 182 174 187 181 177 167 174 181 194 188 190 216 211 180 141 139 143 168 179 178 169
183 178 187 181 177 160 164 179 182 209 197 202 201 211 194 171 160 177 188 204 222 215
194 186 180 165 155 159 173 165 185 198 205 200 191 214 219 189 178 182 191 212 211 237